This is the latest recevied weather packets stored in our database for station/object KD8JAM. If no packets are shown the sender has not sent any weather packets the latest 10 day(s).
| Time | Temp. | Humidity | Pressure | Rain* | Wind** | Luminosity | Snow |
|---|---|---|---|---|---|---|---|
| 1777724080 | 5° C | 59% | 1018.4 hPa | 0 mm | - | 79 W/m² | - |
| 1777723778 | 5° C | 61% | 1018.3 hPa | 0 mm | - | 59 W/m² | - |
| 1777723474 | 4.44° C | 62% | 1018.4 hPa | 0 mm | - | 54 W/m² | - |
| 1777723171 | 4.44° C | 61% | 1018.6 hPa | 0 mm | - | 48 W/m² | - |
| 1777722868 | 3.89° C | 63% | 1018.4 hPa | 0 mm | - | 46 W/m² | - |
| 1777722564 | 3.89° C | 63% | 1018.7 hPa | 0 mm | - | 44 W/m² | - |
| 1777722261 | 3.89° C | 61% | 1018.7 hPa | 0 mm | - | 42 W/m² | - |
| 1777721958 | 3.33° C | 63% | 1018.6 hPa | 0 mm | - | 39 W/m² | - |
| 1777721656 | 2.78° C | 65% | 1018.6 hPa | 0 mm | - | 36 W/m² | - |
| 1777721355 | 2.22° C | 65% | 1018.6 hPa | 0 mm | - | 32 W/m² | - |
| 1777721051 | 2.22° C | 66% | 1018.5 hPa | 0 mm | - | 29 W/m² | - |
| 1777720749 | 1.67° C | 67% | 1018.6 hPa | 0 mm | - | 26 W/m² | - |
| 1777720446 | 1.67° C | 66% | 1018.4 hPa | 0 mm | - | 24 W/m² | - |
| 1777720143 | 1.11° C | 68% | 1018.5 hPa | 0 mm | - | 21 W/m² | - |
| 1777719841 | 1.11° C | 68% | 1018.4 hPa | 0 mm | - | 18 W/m² | - |
| 1777719538 | 1.11° C | 69% | 1018.5 hPa | 0 mm | - | 14 W/m² | - |
| 1777719235 | 1.11° C | 69% | 1018.7 hPa | 0 mm | - | 11 W/m² | - |
| 1777718933 | 0.56° C | 69% | 1018.5 hPa | 0 mm | - | 9 W/m² | - |
| 1777718630 | 0.56° C | 70% | 1018.5 hPa | 0 mm | - | 5 W/m² | - |
| 1777718327 | 0.56° C | 70% | 1018.4 hPa | 0 mm | - | 3 W/m² | - |
| 1777718025 | 0.56° C | 71% | 1018.4 hPa | 0 mm | - | 1 W/m² | - |
| 1777717722 | 0.56° C | 70% | 1018.4 hPa | 0 mm | - | 0 W/m² | - |
| 1777717418 | 0.56° C | 70% | 1018.4 hPa | 0 mm | - | 0 W/m² | - |
| 1777717116 | 0.56° C | 70% | 1018.5 hPa | 0 mm | - | 0 W/m² | - |
| 1777716814 | 0.56° C | 70% | 1018.5 hPa | 0 mm | - | 0 W/m² | - |
* Rain latest hour (hover to see other rain measurements)
** Current wind speed in m/s (hover to see current wind gust speed)